Location: Overspoor
(51.4747°N, 5.6641°E)
Time: 10:12:50
(UTC+02:00)

NANOSAT C BR1 - Pass Details

Date: 03 July 2022
Orbit: 584 x 599 km, 98.0° (Epoch: 07 August)

Event Time Altitude Azimuth Distance (km) Brightness Sun altitude
Rises 03:27:06 0° 19° (NNE) 2,852 ? -12.0°
Reaches altitude 10° 03:29:21 10° 26° (NNE) 1,947 ? -11.9°
Maximum altitude 03:33:25 45° 99° (E) 827 ? -11.6°
Enters shadow 03:37:19 11° 172° (S) 1,884 ? -11.3°
